Location: Unspecified
(54.1780°N, 0.0000°E)
Time: 10:52:04
(UTC+00:00)

Tiros 1 - Pass Details

Date: 22 June 2019
Orbit: 630 x 664 km, 48.4° (Epoch: 18 July)

Event Time Altitude Azimuth Distance (km) Brightness Sun altitude
Rises 23:49:30 0° 226° (SW) 2,945 - -12.3°
Reaches altitude 10° 23:52:06 10° 214° (SW) 2,031 - -12.4°
Exits shadow 23:53:03 15° 206° (SSW) 1,734 8.8 -12.4°
Maximum altitude 23:56:01 27° 157° (SSE) 1,231 8.1 -12.4°
Drops below altitude 10° 23:59:54 10° 100° (E) 2,020 9.6 -12.4°
Sets 00:02:29 0° 88° (E) 2,926 10.6 -12.4°
